User: anonymous   Login
Location: Fort Wayne
(41.1310°N, 85.1290°W)
Time: 15:41:38
(UTC-05:00)
Language:

COSMOS 2406 - Orbit

View from above orbital plane
View from above orbital plane
View from above satellite
View from above satellite

Ground track
Ground track

The orbit data is extracted from the following two-line orbital elements,

1 28352U 04021A   17051.39912597  .00000096  00000-0  78544-4 0  9993
2 28352  71.0028   8.5497 0016483 280.6997  79.2268 14.11606088654369
Epoch (UTC): 20 February 2017 09:34:44
Eccentricity: 0.0016483
inclination: 71.0028°
perigee height: 842 km
apogee height: 866 km
right ascension of ascending node: 8.5497°
argument of perigee: 280.6997°
revolutions per day: 14.11606088
mean anomaly at epoch: 79.2268°
orbit number at epoch: 65436

The dashed part of the orbit path shows where the satellite is in the earth's shadow,  

DLR